Syracuse, NY

9:15 PM EDT on October 19, 2019 (GMT -0400)
Syracuse Hancock International

Weather History for KSYR - June, 2019

Change the Weather History Date:

Tuesday, June 4, 2019

  Actual Average Record
Temperature  
Mean Temperature 56 °F 64 °F  
Max Temperature 66 °F 75 °F 95 °F (1919)
Min Temperature 45 °F 53 °F 37 °F (1910)
Degree Days  
Heating Degree Days 9 4  
Month to date heating degree days 26 16  
Since 1 June heating degree days 26 16  
Since 1 July heating degree days 6750 6606  
Cooling Degree Days 0 2  
Month to date cooling degree days 1 8  
Year to date cooling degree days 14 38  
Since 1 June cooling degree days 1 8  
Growing Degree Days 6 (Base 50)    
Moisture  
Dew Point 44 °F    
Average Humidity 66    
Maximum Humidity 93    
Minimum Humidity 39    
Precipitation  
Precipitation 0.08 in 0.11 in 0.81 in (1909)
Month to date precipitation 0.44 0.43  
Year to date precipitation 18.09 14.36  
Snow  
Snow 0.00 in 0.00 in 0.00 in (2002)
Month to date snowfall 0.0 0.0  
Since 1 June snowfall 0.0 0.0  
Since 1 July snowfall 115.0 123.8  
Snow Depth 0.00 in    
Sea Level Pressure  
Sea Level Pressure 30.02 in    
Wind  
Wind Speed 8 mph (West)    
Max Wind Speed 17 mph    
Max Gust Speed 24 mph    
Visibility 10 miles    
Events Rain    
T = Trace of Precipitation, MM = Missing Value Source: NWS Daily Summary

Daily Weather History Graph

Daily Weather History Graph

Search for Another Location

Airport or City:

Astronomy

Jun. 04, 2019 Rise Set
Actual Time 5:26 AM EDT 8:39 PM EDT
Civil Twilight 4:51 AM EDT 9:14 PM EDT
Nautical Twilight 4:06 AM EDT 9:59 PM EDT
Astronomical Twilight 3:12 AM EDT 10:53 PM EDT
Moon 6:34 AM EDT (6/4) 10:05 PM EDT (6/4)
Length of Visible Light 16h 22m
Length of Day
15h 12m
New Moon, 2% of the Moon is Illuminated
Jun 4
New Moon
Jun 10
First Quarter
Jun 17
Full
Jun 25
Last Quarter
Jul 2
New

Hourly Weather History & Observations

Time (EDT) Temp. Dew Point Humidity Pressure Visibility Wind Dir Wind Speed Gust Speed Precip Events Conditions
12:54 AM 48.9 °F 36.0 °F 61% 30.06 in 10.0 mi West 8.1 mph - N/A   Partly Cloudy
1:54 AM 46.9 °F 37.0 °F 68% 30.07 in 10.0 mi West 8.1 mph - N/A   Partly Cloudy
2:54 AM 46.9 °F 37.9 °F 71% 30.07 in 10.0 mi WSW 8.1 mph - N/A   Partly Cloudy
3:54 AM 48.0 °F 39.9 °F 74% 30.07 in 10.0 mi WSW 9.2 mph - N/A   Clear
4:54 AM 46.9 °F 39.9 °F 77% 30.08 in 10.0 mi WSW 9.2 mph - N/A   Partly Cloudy
5:54 AM 46.9 °F 39.9 °F 77% 30.09 in 10.0 mi WSW 8.1 mph - N/A   Partly Cloudy
6:54 AM 51.1 °F 41.0 °F 68% 30.10 in 10.0 mi WSW 10.4 mph - N/A   Scattered Clouds
7:54 AM 53.1 °F 41.0 °F 64% 30.11 in 10.0 mi WSW 9.2 mph - N/A   Scattered Clouds
8:54 AM 57.0 °F 39.9 °F 53% 30.11 in 10.0 mi West 8.1 mph - N/A   Scattered Clouds
9:54 AM 61.0 °F 37.9 °F 42% 30.10 in 10.0 mi West 12.7 mph 17.3 mph N/A   Scattered Clouds
10:54 AM 63.0 °F 37.9 °F 40% 30.08 in 10.0 mi WSW 13.8 mph 18.4 mph N/A   Scattered Clouds
11:54 AM 64.9 °F 39.0 °F 39% 30.06 in 10.0 mi West 13.8 mph 20.7 mph N/A   Mostly Cloudy
12:54 PM 62.1 °F 41.0 °F 46% 30.06 in 10.0 mi WSW 13.8 mph - N/A   Overcast
1:54 PM 64.0 °F 42.1 °F 45% 30.03 in 10.0 mi West 10.4 mph - N/A   Overcast
2:54 PM 63.0 °F 42.1 °F 46% 30.02 in 10.0 mi West 10.4 mph - 0.00 in Rain Light Rain
3:54 PM 57.9 °F 48.9 °F 72% 30.03 in 9.0 mi West 8.1 mph - 0.02 in Rain Light Rain
4:54 PM 57.0 °F 48.9 °F 74% 30.00 in 10.0 mi NNW 4.6 mph - 0.02 in Rain Light Rain
5:54 PM 55.9 °F 51.1 °F 84% 29.99 in 10.0 mi ENE 3.5 mph - 0.02 in Rain Light Rain
6:54 PM 55.0 °F 51.1 °F 86% 29.95 in 10.0 mi ESE 10.4 mph - 0.01 in Rain Light Rain
7:54 PM 54.0 °F 50.0 °F 86% 29.94 in 10.0 mi ENE 6.9 mph - 0.01 in Rain Light Rain
8:54 PM 54.0 °F 51.1 °F 90% 29.90 in 10.0 mi East 6.9 mph - 0.00 in   Overcast
9:54 PM 54.0 °F 51.1 °F 90% 29.88 in 10.0 mi East 6.9 mph - 0.00 in Rain Light Rain
10:54 PM 54.0 °F 51.1 °F 90% 29.85 in 10.0 mi East 3.5 mph - 0.00 in   Overcast
11:54 PM 54.0 °F 51.1 °F 90% 29.84 in 10.0 mi NNE 6.9 mph - N/A   Overcast